Theta_e
316 316 316 317 319 318 318 319 319 317 316 315 317 318 319 319 318 319 317 319 324 326 326 329 330 322 322 343 345 343 344 344 343 343 342 340 339 338 337 335 332 329 329 330
315 317 317 316 316 317 316 316 316 316 314 316 318 318 319 318 317 320 323 325 325 327 328 330 333 336 328 338 345 344 344 344 342 341 341 340 339 339 337 333 333 330 330 330
317 317 316 316 315 316 316 316 317 318 315 315 316 319 320 317 321 323 324 324 326 326 327 328 332 336 340 334 343 345 343 343 341 341 340 339 338 337 337 336 336 334 330 329
317 316 316 316 317 316 318 316 317 317 318 320 316 320 321 320 319 325 326 326 327 328 328 329 330 334 339 340 334 344 344 343 341 341 340 339 338 337 337 335 336 337 331 328
318 316 316 317 317 316 318 317 318 318 320 319 318 320 320 318 320 326 327 327 328 329 329 331 332 336 338 341 338 340 345 343 341 339 339 339 339 339 338 339 340 338 334 332
317 315 314 316 314 316 316 318 318 316 319 321 320 320 320 328 328 328 329 330 329 330 331 333 335 338 337 338 343 345 346 344 342 341 339 338 339 339 342 343 343 341 337 338
316 313 312 311 315 314 319 321 321 321 321 320 318 319 329 328 326 326 328 328 327 327 329 331 333 336 338 337 337 343 348 347 345 344 341 341 341 340 343 345 344 342 340 339
318 316 312 310 311 313 315 321 321 321 320 321 320 324 331 325 324 324 325 325 326 326 327 328 329 330 334 335 336 337 338 341 345 347 346 344 345 344 344 343 342 342 339 338
316 312 310 310 309 311 312 316 312 320 321 322 323 330 328 325 324 321 321 322 323 323 324 326 326 326 328 329 332 333 334 336 338 341 342 343 342 342 342 339 337 334 332 331
311 313 311 311 309 311 310 311 317 318 321 322 323 328 330 324 321 319 317 317 317 319 322 324 322 323 325 326 327 328 330 331 332 333 337 341 342 341 339 337 338 339 335 331
317 317 314 317 313 314 316 315 312 317 319 319 319 322 329 322 320 320 319 317 317 318 319 320 320 319 322 324 324 327 328 328 329 331 333 336 338 339 337 336 339 339 333 334
314 318 318 316 308 309 310 313 314 316 317 319 319 319 314 312 313 313 314 314 314 314 317 318 318 317 318 319 320 321 326 327 329 330 332 334 335 335 336 337 335 336 330 329
310 310 312 312 308 308 310 310 310 310 311 316 318 319 310 312 313 314 314 314 313 313 313 313 313 317 315 316 318 320 325 327 327 328 329 331 332 334 335 336 335 333 332 332
308 310 311 313 312 308 309 309 308 309 310 310 310 311 310 311 313 313 313 313 312 312 311 311 311 310 314 316 315 313 314 322 327 327 327 329 330 331 333 332 333 334 332 331
310 310 308 306 307 309 309 309 308 309 308 309 308 308 308 311 312 311 311 310 311 311 310 310 310 309 308 309 312 313 313 313 318 326 326 326 328 329 330 332 333 332 333 332
309 312 310 309 309 309 309 309 308 308 307 307 307 307 310 311 310 310 310 310 310 310 309 308 308 308 308 308 308 309 311 312 312 321 326 324 324 324 325 328 330 330 331 332
311 312 311 310 308 308 307 306 307 307 308 307 307 308 311 311 311 311 310 310 310 310 308 308 307 306 306 307 307 308 309 309 313 322 325 324 321 320 321 323 324 327 328 328
310 311 310 309 308 306 305 310 308 309 309 311 312 312 311 310 310 309 309 309 309 308 307 307 306 305 305 306 306 307 308 309 310 319 323 323 320 319 319 320 320 322 324 327
307 310 310 311 308 306 307 309 311 310 309 311 311 311 310 309 308 309 308 307 306 306 305 305 304 304 304 305 305 306 307 308 310 311 319 321 320 318 318 317 318 319 318 320
306 308 309 308 311 311 308 310 309 309 312 311 311 311 310 308 309 309 306 305 305 305 304 304 304 304 304 304 304 305 306 308 309 310 311 316 320 318 317 317 317 317 319 321
308 308 311 311 311 310 308 311 310 312 312 311 310 309 307 307 307 306 306 306 305 305 305 304 304 305 304 304 304 305 306 307 308 309 310 310 319 318 316 315 316 316 317 318
311 312 312 310 311 311 311 310 312 310 309 309 308 307 307 307 307 307 307 307 305 306 305 305 304 304 304 305 305 305 306 306 307 309 309 311 318 317 314 313 312 312 313 313
314 311 314 312 312 309 311 310 309 308 309 308 306 307 307 307 307 307 307 306 305 305 305 305 304 305 305 305 306 306 306 306 307 308 310 311 316 317 314 313 310 311 310 309
308 307 312 311 309 308 309 309 308 308 308 307 306 306 307 308 307 306 306 306 305 305 305 304 304 304 305 306 306 307 307 306 307 307 309 311 312 315 313 310 308 309 309 309
306 306 307 308 307 307 307 307 307 307 306 306 306 307 307 307 306 306 306 306 305 304 304 304 304 304 304 306 307 307 307 306 307 308 309 312 313 313 313 308 307 307 307 304
304 306 308 309 306 307 309 308 307 308 308 307 306 306 307 305 305 306 305 305 304 305 305 305 306 306 307 308 307 307 306 307 308 309 310 311 311 311 310 310 308 306 306 304
Wind_Speed
4 6 10 13 10 6 4 5 8 5 5 3 4 8 9 8 9 6 3 6 8 9 11 14 14 12 11 20 24 32 30 33 32 28 33 36 37 41 36 37 36 32 29 28
5 12 13 8 8 6 5 4 7 7 4 7 3 9 9 7 5 7 7 9 11 12 15 17 18 14 11 14 22 22 29 31 39 35 35 28 30 28 32 33 34 34 30 29
13 3 7 10 8 8 7 8 6 7 1 5 5 4 2 6 10 8 10 10 11 13 16 17 21 19 16 11 18 23 25 30 36 31 28 25 18 19 19 28 26 30 31 29
8 6 7 8 10 10 9 13 10 8 3 3 2 3 4 2 5 10 12 13 14 15 14 14 19 21 20 21 14 19 21 23 23 26 24 26 26 25 34 27 26 25 31 33
6 7 9 8 11 13 8 6 9 7 6 3 6 4 4 4 5 12 13 13 13 14 15 16 17 20 21 21 16 12 17 19 22 25 30 28 30 28 17 20 22 27 26 30
1 2 2 3 2 9 1 5 3 2 4 8 9 7 5 2 5 9 9 11 12 14 14 15 18 19 22 23 19 8 10 14 17 22 29 32 30 26 20 18 19 24 28 33
1 4 4 4 3 3 4 6 4 7 7 10 4 6 3 2 3 5 7 10 13 13 15 17 19 22 23 23 24 18 9 5 12 18 23 25 25 26 21 19 15 17 21 23
3 5 8 9 4 2 3 3 5 5 5 2 2 4 4 4 3 3 6 8 10 13 14 16 18 21 23 24 23 25 19 14 6 6 15 20 18 21 21 15 12 10 8 7
1 3 2 8 11 3 3 2 2 3 1 3 3 3 4 4 3 4 4 5 10 12 12 13 17 20 21 21 22 19 19 18 17 11 1 10 12 15 15 15 15 14 7 5
2 2 4 5 3 8 6 2 2 1 5 9 5 4 3 7 5 5 7 9 11 11 12 10 13 17 16 15 16 17 17 17 15 12 9 4 6 13 16 17 19 17 13 6
3 1 5 4 2 3 3 1 2 1 2 4 6 3 3 2 4 7 6 8 10 10 10 11 15 17 14 13 15 16 16 15 14 13 9 5 4 9 15 19 24 26 21 22
2 3 3 5 4 5 6 7 7 5 5 2 2 3 4 5 5 7 9 13 13 11 11 11 13 17 17 16 18 17 13 12 13 14 13 10 5 7 9 13 17 19 18 19
5 2 2 2 4 3 4 4 3 3 0 14 10 4 4 4 5 7 9 10 12 13 13 12 14 14 13 20 15 14 12 12 11 11 11 12 10 5 10 9 14 13 16 20
2 2 4 5 4 1 3 4 2 2 4 5 6 4 5 2 4 5 7 8 9 10 13 14 14 18 19 18 19 16 14 14 11 9 9 11 11 10 7 5 11 12 20 25
1 4 1 1 1 2 4 7 7 8 7 7 7 9 9 2 2 4 3 6 8 9 11 12 13 15 18 19 20 20 19 17 14 11 9 9 8 8 7 6 5 10 15 25
3 2 2 2 2 4 9 10 9 9 11 11 12 14 1 3 2 5 8 11 12 9 9 12 13 18 18 19 21 22 20 19 18 13 7 6 8 9 9 7 4 4 9 15
1 4 2 4 2 6 10 15 15 8 6 7 8 5 1 1 7 10 12 13 13 11 12 13 14 17 18 19 20 21 21 20 18 14 7 5 7 8 8 7 6 4 6 11
1 3 2 4 3 6 2 0 5 8 5 8 4 2 1 5 9 13 12 12 8 12 16 16 18 20 21 20 20 21 21 19 18 14 10 5 5 6 6 6 7 7 6 7
7 4 3 3 5 9 7 5 5 6 5 6 7 4 1 7 10 14 3 2 12 17 19 22 22 22 23 22 22 21 22 21 19 16 14 9 4 6 7 7 8 9 9 9
6 4 7 3 3 4 1 5 5 3 9 6 5 3 6 6 7 12 7 14 16 20 21 23 24 24 23 22 23 23 22 20 20 19 16 12 8 4 5 10 12 12 11 12
5 4 9 7 4 6 2 8 6 5 2 7 3 6 7 8 8 15 18 18 21 24 25 23 23 24 24 23 20 21 23 21 20 19 18 15 12 6 3 6 8 10 12 14
6 7 4 5 5 7 9 7 5 3 3 5 6 7 8 11 15 17 17 18 22 24 23 23 22 24 23 22 20 20 22 23 21 19 17 15 13 7 4 5 7 10 11 12
3 3 1 6 3 2 8 1 1 2 7 5 5 6 8 13 16 17 18 17 19 25 22 22 21 21 24 23 21 21 22 22 20 18 18 14 11 9 5 4 5 6 8 9
3 3 3 2 2 5 6 7 7 6 9 7 7 10 10 13 15 17 16 12 15 19 18 20 20 20 23 25 25 22 22 21 20 20 19 14 10 10 5 4 4 5 6 7
3 2 3 5 9 8 5 7 5 6 6 10 12 10 11 12 16 15 14 14 19 19 19 18 20 20 22 22 22 21 20 20 19 18 17 12 5 6 5 3 2 4 6 7
4 4 4 3 4 2 5 3 6 10 10 9 8 11 11 14 14 15 12 18 19 20 21 21 21 20 21 20 21 19 17 15 15 15 16 18 4 4 5 5 5 3 7 8
Wind_Direction
184 206 212 208 208 231 201 242 263 254 246 268 262 265 287 288 284 308 352 10 350 342 333 337 345 342 264 232 218 217 211 211 204 200 201 213 219 232 237 237 237 236 235 230
176 229 228 208 179 186 196 219 260 299 216 213 268 283 294 297 59 58 26 4 350 341 336 340 348 351 336 253 229 221 217 210 213 205 206 205 216 226 233 236 239 237 235 231
213 195 185 181 171 188 212 225 236 258 128 237 258 229 318 99 98 63 35 5 352 347 336 332 337 345 338 309 249 231 221 216 217 207 207 204 213 224 228 227 230 233 231 229
229 224 174 183 206 203 231 216 236 248 234 251 255 230 282 112 120 40 17 7 355 350 344 337 335 340 343 332 286 245 233 221 218 211 210 204 205 211 221 218 218 219 226 224
198 195 191 207 228 194 227 195 209 211 221 219 192 242 184 358 127 12 6 6 2 359 355 348 347 347 353 348 322 264 237 226 215 210 211 209 213 225 228 219 213 218 224 225
164 49 45 331 68 194 110 164 121 133 186 242 234 237 182 354 343 359 21 23 20 16 14 13 7 8 10 11 4 313 251 233 220 214 212 215 220 218 218 213 210 213 219 218
176 45 353 11 196 92 201 192 220 218 211 250 132 217 28 27 36 21 11 18 20 23 25 19 16 15 17 22 22 20 8 261 233 220 216 221 222 218 226 213 201 206 224 227
209 164 13 358 26 12 75 259 241 254 231 184 171 205 113 113 112 35 37 27 19 18 16 21 23 17 21 25 38 40 36 29 27 234 227 224 227 219 219 214 207 205 223 263
134 105 319 48 44 343 92 101 355 106 39 247 150 112 179 185 123 86 47 22 15 6 7 12 18 18 22 23 29 36 50 48 42 35 311 216 213 214 208 196 178 165 144 65
129 148 22 7 327 44 67 45 205 103 225 242 191 195 151 166 103 59 44 18 4 356 355 5 11 8 6 12 16 21 29 37 44 46 43 22 246 227 212 196 196 183 167 182
113 300 175 298 37 336 335 248 75 331 246 265 251 155 80 94 354 334 349 345 341 338 335 337 340 345 349 3 15 14 13 18 22 19 6 326 269 226 211 204 203 208 222 222
59 132 210 260 332 278 246 258 232 230 191 213 309 202 72 43 28 4 11 9 357 346 323 324 333 327 321 322 335 337 343 1 8 9 11 7 286 251 229 217 208 216 238 209
172 167 187 204 211 186 216 164 139 118 138 253 254 221 144 65 43 22 15 9 12 13 11 3 348 332 323 336 340 353 348 353 1 6 11 15 19 339 267 241 230 213 233 220
122 153 228 266 337 43 204 180 141 202 229 256 243 280 215 335 18 16 22 21 17 16 14 8 2 356 337 317 315 327 340 341 347 0 11 26 17 15 351 297 254 243 228 217
358 245 252 264 187 236 246 240 238 233 248 253 276 266 288 260 343 7 0 350 341 349 355 357 352 349 347 343 335 321 328 329 331 341 0 15 26 33 26 6 325 259 234 227
7 186 206 241 309 283 270 251 242 243 254 262 262 271 197 120 325 331 340 340 337 333 336 335 334 334 337 338 336 331 326 322 321 314 337 358 16 26 35 30 358 289 260 246
304 164 176 263 5 301 275 249 229 224 211 244 243 292 140 326 343 333 326 323 317 318 322 324 323 320 320 322 326 324 324 319 314 301 307 330 353 360 13 3 0 338 291 275
215 177 196 291 280 245 26 12 211 215 241 224 248 207 78 351 323 305 306 295 305 314 315 316 316 315 314 312 313 315 317 318 314 297 285 295 333 335 348 351 333 323 311 282
218 212 202 243 232 294 257 202 199 214 271 226 229 194 245 339 319 299 82 304 309 308 305 308 310 308 308 307 307 307 309 312 313 306 297 291 295 313 329 341 337 329 315 302
160 230 223 182 240 253 59 159 136 141 270 153 172 183 307 318 295 300 336 301 299 297 298 301 302 304 301 301 301 299 296 298 299 304 298 294 274 288 332 337 339 334 323 311
155 182 212 216 250 279 202 153 151 235 17 157 199 286 283 270 284 295 303 303 300 299 299 300 299 299 298 299 296 291 287 283 286 294 297 291 272 272 296 328 325 322 318 313
183 179 188 194 215 262 144 142 222 63 160 230 261 281 285 291 291 292 294 300 304 302 302 302 300 297 295 295 291 285 281 284 285 286 290 284 264 247 267 314 322 326 330 322
222 239 230 214 230 20 194 332 116 231 284 262 285 301 297 297 301 304 303 304 296 302 298 297 299 298 296 295 290 284 281 282 281 282 282 277 267 250 252 293 310 323 336 330
205 188 238 271 140 239 254 264 266 285 269 257 267 287 297 301 304 304 309 301 298 296 299 298 298 295 295 294 293 285 282 279 280 276 276 275 273 248 239 270 305 323 345 330
288 198 241 264 274 272 260 241 286 286 271 264 280 291 300 304 304 308 312 305 307 303 298 297 294 293 288 295 294 292 280 276 277 272 266 258 298 263 232 224 289 322 342 327
215 228 207 245 10 297 302 262 285 286 287 285 292 300 307 307 300 311 301 300 303 298 296 293 291 290 292 290 295 292 281 273 273 271 257 248 262 318 260 246 247 327 9 11